EIN99T EIDW-EICK

Flight info

Callsign EIN99T
Flight time N/A
Altitude 24000
Route OLONO4E OLONO DCT TISMO TISMO1R
Aircraft A320/M-SDE3FGHIRWY/LB1

Departure

Time 2026-04-30 14:56
Airport Dublin Airport (EIDW)

Arrival

Time N/A
Airport Cork International Airport (EICK)
Time Latitude Longitude Altitude Speed Heading
2026-04-30 14:13 53.42435 -6.26294 251 ft 0 kts 186°
2026-04-30 14:17 53.42421 -6.26198 251 ft 0 kts 184°
2026-04-30 14:46 53.42422 -6.26198 251 ft 1 kts 184°
2026-04-30 14:46 53.42437 -6.26196 251 ft 2 kts 184°
2026-04-30 14:47 53.42453 -6.26195 251 ft 2 kts 184°
2026-04-30 14:47 53.42467 -6.26193 251 ft 2 kts 184°
2026-04-30 14:47 53.42482 -6.26191 251 ft 2 kts 184°
2026-04-30 14:47 53.42491 -6.26190 251 ft 2 kts 185°
2026-04-30 14:48 53.42506 -6.26196 251 ft 2 kts 141°
2026-04-30 14:48 53.42515 -6.26217 251 ft 1 kts 104°
2026-04-30 14:48 53.42516 -6.26228 251 ft 1 kts 90°
2026-04-30 14:48 53.42516 -6.26234 251 ft 0 kts 94°
2026-04-30 14:51 53.42516 -6.26233 251 ft 0 kts 95°
2026-04-30 14:51 53.42510 -6.26140 251 ft 8 kts 95°
2026-04-30 14:52 53.42503 -6.26015 251 ft 11 kts 95°
2026-04-30 14:52 53.42410 -6.25909 251 ft 10 kts 226°
2026-04-30 14:52 53.42357 -6.26000 251 ft 11 kts 225°
2026-04-30 14:53 53.42268 -6.26286 251 ft 19 kts 270°
2026-04-30 14:53 53.42281 -6.26540 251 ft 23 kts 276°
2026-04-30 14:54 53.42312 -6.27111 251 ft 25 kts 276°
2026-04-30 14:54 53.42343 -6.27686 251 ft 24 kts 275°
2026-04-30 14:55 53.42372 -6.28223 251 ft 19 kts 276°
2026-04-30 14:55 53.42296 -6.28315 251 ft 17 kts 154°
2026-04-30 14:55 53.42194 -6.28133 251 ft 15 kts 95°
2026-04-30 14:56 53.42069 -6.25878 642 ft 151 kts 95°
2026-04-30 14:56 53.41878 -6.22234 2622 ft 166 kts 96°
2026-04-30 14:57 53.41772 -6.20264 3460 ft 179 kts 97°
2026-04-30 14:57 53.41512 -6.15641 5028 ft 223 kts 98°
2026-04-30 14:58 53.41197 -6.10085 6768 ft 262 kts 99°
2026-04-30 14:58 53.41022 -6.06994 7807 ft 274 kts 99°
2026-04-30 14:58 53.39771 -6.01074 10009 ft 278 kts 139°
2026-04-30 14:59 53.36227 -5.99083 11726 ft 293 kts 191°
2026-04-30 15:00 53.29970 -6.01325 14791 ft 317 kts 197°
2026-04-30 15:00 53.25764 -6.03294 16899 ft 322 kts 201°
2026-04-30 15:01 53.21389 -6.05455 17980 ft 332 kts 199°
2026-04-30 15:01 53.19157 -6.06287 18106 ft 333 kts 196°
2026-04-30 15:01 53.14534 -6.07278 18114 ft 335 kts 192°
2026-04-30 15:02 53.12259 -6.07868 18115 ft 332 kts 197°
2026-04-30 15:02 53.10040 -6.08745 18115 ft 329 kts 201°
2026-04-30 15:03 53.03622 -6.12393 18112 ft 323 kts 205°
2026-04-30 15:03 52.99408 -6.14878 18109 ft 319 kts 205°
2026-04-30 15:04 52.95524 -6.18074 18102 ft 307 kts 222°
2026-04-30 15:04 52.91712 -6.26392 18100 ft 304 kts 238°
2026-04-30 15:05 52.88238 -6.35656 18096 ft 320 kts 238°
2026-04-30 15:06 52.85877 -6.41930 18095 ft 320 kts 238°
2026-04-30 15:06 52.83538 -6.48164 18095 ft 320 kts 238°
2026-04-30 15:07 52.81187 -6.54425 18095 ft 320 kts 238°
2026-04-30 15:07 52.78839 -6.60667 18095 ft 320 kts 238°
2026-04-30 15:08 52.76485 -6.66910 18097 ft 320 kts 237°
2026-04-30 15:08 52.72957 -6.76227 18100 ft 319 kts 236°
2026-04-30 15:09 52.70353 -6.82130 18106 ft 319 kts 233°
2026-04-30 15:09 52.67673 -6.87900 18111 ft 319 kts 233°
2026-04-30 15:10 52.64967 -6.93703 18114 ft 318 kts 233°
2026-04-30 15:11 52.59553 -7.05246 18099 ft 320 kts 233°
2026-04-30 15:11 52.56824 -7.11043 18096 ft 321 kts 233°
2026-04-30 15:12 52.52713 -7.19752 18095 ft 323 kts 234°
2026-04-30 15:13 52.49948 -7.25592 18093 ft 324 kts 234°
2026-04-30 15:14 52.44452 -7.37162 17115 ft 322 kts 233°
2026-04-30 15:14 52.40327 -7.45810 16363 ft 320 kts 233°
2026-04-30 15:16 52.33484 -7.60088 15111 ft 318 kts 233°
2026-04-30 15:17 52.28042 -7.71410 14113 ft 317 kts 233°
2026-04-30 15:18 52.21231 -7.85492 12601 ft 315 kts 232°
2026-04-30 15:19 52.17229 -7.93729 10944 ft 309 kts 231°